Regional Weather Roundup
Issued by NWS Jackson, KY

Home | Current Version | Previous Version | Text Only | Print | Product List | Glossary On
Versions: 1 2 3 4 5 6 7 8 9 10 11 12 13 14 15 16 17 18 19 20 21 22 23 24 25 26 27
000
ASUS43 KJKL 280010
RWRJKL

EAST KENTUCKY HOURLY WEATHER ROUNDUP
NATIONAL WEATHER SERVICE JACKSON KY
800 PM EDT THU APR 27 2017

NOTE: "FAIR" INDICATES FEW OR NO CLOUDS BELOW 12,000 FEET WITH
NO SIGNIFICANT WEATHER AND/OR OBSTRUCTIONS TO VISIBILITY.

* THESE REPORTS ARE NOT UNDER NWS QUALITY CONTROL AND MAY NOT
  REPORT WEATHER SUCH AS PRECIPITATION AND FOG.

KYZ079-080-083-085-087-088-110-112-115-119-120-280100
...EASTERN KENTUCKY...

CITY           SKY/WX    TMP DP  RH WIND       PRES   REMARKS
JACKSON        CLEAR     70  55  59 VRB5      29.82R
6HR MIN TEMP:  69; 6HR MAX TEMP:  78;

LONDON         PTCLDY    69  49  48 NW7       29.83R
6HR MIN TEMP:  69; 6HR MAX TEMP:  78;

SOMERSET*      PTCLDY    64  52  63 W7        29.85S
MONTICELLO*    PTCLDY    67  49  52 W7        29.86R
6HR MIN TEMP:  67; 6HR MAX TEMP:  76;

WILLIAMSBURG*  PTCLDY    68  50  52 W7        29.83R
MIDDLESBORO*   CLEAR     71  60  66 CALM      29.82R
6HR MIN TEMP:  66; 6HR MAX TEMP:  76;

HARLAN APT*    MOCLDY    70  55  60 CALM      29.82R
PIKE CO APT*     N/A     71  57  60 CALM      29.80R
BIG SANDY APT* PTCLDY    73  50  43 W6        29.79R
6HR MIN TEMP:  70; 6HR MAX TEMP:  77;

MOREHEAD APT*  CLEAR     64  50  59 W7G14     29.84R
$$

KYZ035-036-041-042-044-050-067-078-099-280100
...CENTRAL KENTUCKY...

CITY           SKY/WX    TMP DP  RH WIND       PRES   REMARKS
MT STERLING*   PTCLDY    63  52  67 W5        29.85R
FLEMING/MASON* CLEAR     62  48  61 W10       29.83R
DANVILLE*      CLEAR     63  52  67 NW3       29.86R
LEXINGTON      PTCLDY    62  47  57 W10       29.85R
6HR MIN TEMP:  62; 6HR MAX TEMP:  74;

FRANKFORT      PTCLDY    60  46  59 W5        29.83R
6HR MIN TEMP:  60; 6HR MAX TEMP:  71;

LOUISVILLE     CLOUDY    61  47  59 SW9       29.83S
6HR MIN TEMP:  60; 6HR MAX TEMP:  65;

LEBANON*         N/A     61  48  63 W8        29.85S
GLASGOW*       PTCLDY    60  50  68 CALM      29.85S
BOWLING GREEN  CLOUDY    62  51  67 SW6       29.85R
6HR MIN TEMP:  62; 6HR MAX TEMP:  66;

$$

KYZ091>093-OHZ055-061-077-WVZ005-015-034-035-042-280100
...SOUTHERN OHIO/WEST VIRGINIA...

CITY           SKY/WX    TMP DP  RH WIND       PRES   REMARKS
COVINGTON      MOCLDY    59  47  64 W9        29.82R
COLUMBUS       PTCLDY    65  47  52 W14       29.76R
DAYTON         MOCLDY    58  45  62 W16       29.81R
WILMINGTON     CLEAR     59  47  64 W13       29.80R
HUNTINGTON     CLEAR     72  53  51 W9        29.77R
CHARLESTON     PTCLDY    72  60  66 S7        29.76R
PINEVILLE*     PTCLDY    65  61  86 MISG      29.89R
BECKLEY        CLOUDY    63  57  81 S7        29.86S
BLUEFIELD      LGT RAIN  60  56  86 S7        29.90R
LOGAN CO APT*    N/A     68  61  77 VRB3      29.80R
$$

VAZ002-007-008-TNZ017-027-036-066-071-280100
...SOUTHWEST VIRGINIA/EAST TENNESSEE...

CITY           SKY/WX    TMP DP  RH WIND       PRES   REMARKS
WISE*          CLEAR     64  55  72 CALM      29.88S
JONESVILLE*      N/A     70  61  73 CALM      29.84R
ABINGDON*      CLOUDY    65  64  97 CALM      29.88S
BRISTOL        MOCLDY    67  64  90 CALM      29.85R
MORRISTOWN*    CLEAR     72  59  64 W5G12     29.81S
SEVIERVILLE*   PTCLDY    73  61  64 W5        29.81S
KNOXVILLE      PTCLDY    73  57  57 W8        29.81R
LAFOLLETTE*    CLEAR     72  52  49 CALM      29.85R
OAK RIDGE      PTCLDY    74  58  57 VRB6      29.82R
CROSSVILLE     CLEAR     66  49  54 W9        29.87R
NASHVILLE      PTCLDY    67  50  54 W3        29.83F
$$

...KEY TO REMARKS...
VSB - VISIBILITY IN MILES
WCI - WIND CHILL INDEX
HX  - HEAT INDEX

$$




USA.gov is the U.S. government's official web portal to all federal, state and local government web resources and services.